{"data":{"norad_id":63869,"epoch":"2026-09-20T23:06:06.796224Z","epoch_age_seconds":107007,"freshness":"FRESH","line1":"1 63869U 25094F   26263.96257866  .00008551  00000+0  29381-3 0  9994","line2":"2 63869  69.9996  99.6982 0002942 274.0172  86.0667 15.30431899 76510","mean_motion":15.30431899,"eccentricity":0.0002942,"inclination_deg":69.9996,"raan_deg":99.6982,"arg_perigee_deg":274.0172,"mean_anomaly_deg":86.0667,"bstar":0.00029381,"rev_number":7651,"period_min":94.091086375089,"perigee_km":472.50669574006,"apogee_km":476.53880073593,"semimajor_km":6852.659748238,"source":"CELESTRAK","updated_at":"2026-09-21T09:00:35.138021Z"}}